,,Stat6,,Stat2,,Stat8,,Stat9,,Stat10,,Wind1,,Wind1,
time,status,PA1M_AVG,status,PR1M_SUM,status,RH1M_AVG,status,SR1M_AVG,status,TA1M_AVG,status,W1dAve1m,status,W1sAve1m,
2005-09-16, 00:00:00,VALID,919.709,VALID,0,VALID,100,VALID,0.101885,VALID,19.8858,VALID,143,VALID,0.0143532,
2005-09-16, 00:01:00,VALID,919.711,VALID,0,VALID,100,VALID,0.0339617,VALID,19.8446,VALID,143,VALID,0.0148983,
2005-09-16, 00:02:00,VALID,919.723,VALID,0,VALID,100,VALID,0,VALID,19.8292,VALID,143,VALID,0.00218023,
2005-09-16, 00:03:00,VALID,919.732,VALID,0,VALID,100,VALID,0.0339617,VALID,19.8023,VALID,143,VALID,0,
2005-09-16, 00:04:00,VALID,919.729,VALID,0,VALID,100,VALID,0.0339617,VALID,19.8028,VALID,143,VALID,0,
2005-09-16, 00:05:00,VALID,919.735,VALID,0,VALID,100,VALID,0,VALID,19.7931,VALID,143,VALID,0,
2005-09-16, 00:06:00,VALID,919.739,VALID,0,VALID,100,VALID,0.0169808,VALID,19.7867,VALID,143,VALID,0,
2005-09-16, 00:07:00,VALID,919.739,VALID,0,VALID,100,VALID,0,VALID,19.7869,VALID,143,VALID,0,
2005-09-16, 00:08:00,VALID,919.733,VALID,0,VALID,100,VALID,0,VALID,19.7867,VALID,143,VALID,0,
2005-09-16, 00:09:00,VALID,919.721,VALID,0,VALID,100,VALID,0.0169808,VALID,19.7929,VALID,143,VALID,0,
2005-09-16, 00:10:00,VALID,919.694,VALID,0,VALID,100,VALID,0.0339617,VALID,19.819,VALID,143,VALID,0,
2005-09-16, 00:11:00,VALID,919.671,VALID,0,VALID,100,VALID,0.0339617,VALID,19.848,VALID,143,VALID,0,
2005-09-16, 00:12:00,VALID,919.647,VALID,0,VALID,100,VALID,0.0339617,VALID,19.8701,VALID,143,VALID,0,
2005-09-16, 00:13:00,VALID,919.65,VALID,0,VALID,100,VALID,0.0339617,VALID,19.8736,VALID,143,VALID,0,
2005-09-16, 00:14:00,VALID,919.657,VALID,0,VALID,99.9977,VALID,0.0169808,VALID,19.8836,VALID,143,VALID,0.162609,
2005-09-16, 00:15:00,VALID,919.654,VALID,0,VALID,99.7752,VALID,0,VALID,19.9027,VALID,143,VALID,0.102778,
2005-09-16, 00:16:00,VALID,919.662,VALID,0,VALID,99.5743,VALID,-0.0849042,VALID,19.9231,VALID,143,VALID,0.00190549,
2005-09-16, 00:17:00,VALID,919.664,VALID,0,VALID,99.353,VALID,-0.0849042,VALID,19.9464,VALID,143,VALID,0.10061,
2005-09-16, 00:18:00,VALID,919.654,VALID,0,VALID,99.1813,VALID,-0.101885,VALID,19.9559,VALID,143,VALID,0.175509,
2005-09-16, 00:19:00,VALID,919.654,VALID,0,VALID,99.1127,VALID,-0.0849042,VALID,19.9661,VALID,143,VALID,0.0284091,
2005-09-16, 00:20:00,VALID,919.652,VALID,0,VALID,99.0898,VALID,-0.0679233,VALID,19.9852,VALID,143,VALID,0.0343387,
2005-09-16, 00:21:00,VALID,919.663,VALID,0,VALID,99.1445,VALID,-0.101885,VALID,20.0051,VALID,143,VALID,0.0701308,
2005-09-16, 00:22:00,VALID,919.667,VALID,0,VALID,99.0478,VALID,-0.0849042,VALID,20.0239,VALID,143,VALID,0.174419,
2005-09-16, 00:23:00,VALID,919.674,VALID,0,VALID,98.9156,VALID,-0.0849042,VALID,20.011,VALID,143,VALID,0.229469,
2005-09-16, 00:24:00,VALID,919.671,VALID,0,VALID,98.8444,VALID,-0.101885,VALID,19.9916,VALID,32,VALID,0.495808,
2005-09-16, 00:25:00,VALID,919.687,VALID,0,VALID,98.7668,VALID,-0.101885,VALID,19.9688,VALID,356,VALID,0.584985,
2005-09-16, 00:26:00,VALID,919.649,VALID,0,VALID,98.5583,VALID,-0.101885,VALID,19.9109,VALID,350,VALID,0.333681,
2005-09-16, 00:27:00,VALID,919.626,VALID,0,VALID,98.6816,VALID,-0.101885,VALID,19.8915,VALID,350,VALID,0.0554142,
2005-09-16, 00:28:00,VALID,919.603,VALID,0,VALID,98.9296,VALID,-0.0849042,VALID,19.8721,VALID,350,VALID,0,
2005-09-16, 00:29:00,VALID,919.571,VALID,0,VALID,99.0707,VALID,-0.101885,VALID,19.859,VALID,350,VALID,0,
2005-09-16, 00:30:00,VALID,919.543,VALID,0,VALID,99.1966,VALID,-0.101885,VALID,19.8463,VALID,350,VALID,0,
2005-09-16, 00:31:00,VALID,919.522,VALID,0,VALID,99.2856,VALID,0,VALID,19.8421,VALID,350,VALID,0,
2005-09-16, 00:32:00,VALID,919.514,VALID,0,VALID,99.2487,VALID,0.0509425,VALID,19.8254,VALID,350,VALID,0,
2005-09-16, 00:33:00,VALID,919.494,VALID,0,VALID,99.1101,VALID,0.0339617,VALID,19.7832,VALID,350,VALID,0,
2005-09-16, 00:34:00,VALID,919.466,VALID,0,VALID,99.1597,VALID,0.0169808,VALID,19.7509,VALID,350,VALID,0,
2005-09-16, 00:35:00,VALID,919.47,VALID,0,VALID,99.1877,VALID,0.0169808,VALID,19.7318,VALID,350,VALID,0,
2005-09-16, 00:36:00,VALID,919.458,VALID,0,VALID,99.1661,VALID,0.0339617,VALID,19.7122,VALID,350,VALID,0.0111607,
2005-09-16, 00:37:00,VALID,919.449,VALID,0,VALID,99.0313,VALID,0.0679233,VALID,19.6699,VALID,350,VALID,0.294017,
2005-09-16, 00:38:00,VALID,919.456,VALID,0,VALID,98.9868,VALID,0.0679233,VALID,19.6446,VALID,12,VALID,0.587536,
2005-09-16, 00:39:00,VALID,919.465,VALID,0,VALID,98.9931,VALID,0,VALID,19.6222,VALID,32,VALID,0.715892,
2005-09-16, 00:40:00,VALID,919.471,VALID,0,VALID,98.9715,VALID,0,VALID,19.5929,VALID,32,VALID,0.602834,
2005-09-16, 00:41:00,VALID,919.474,VALID,0,VALID,98.8673,VALID,0.0169808,VALID,19.5899,VALID,32,VALID,0.479469,
2005-09-16, 00:42:00,VALID,919.44,VALID,0,VALID,98.8698,VALID,0.0169808,VALID,19.5606,VALID,32,VALID,0.397396,
2005-09-16, 00:43:00,VALID,919.424,VALID,0,VALID,98.9207,VALID,0.0509425,VALID,19.5346,VALID,32,VALID,0.366602,
2005-09-16, 00:44:00,VALID,919.391,VALID,0,VALID,99.0237,VALID,0.0169808,VALID,19.5184,VALID,32,VALID,0.307927,
2005-09-16, 00:45:00,VALID,919.372,VALID,0,VALID,99.1623,VALID,0.0509425,VALID,19.5057,VALID,31,VALID,0.0921875,
2005-09-16, 00:46:00,VALID,919.351,VALID,0,VALID,99.2907,VALID,-0.0509425,VALID,19.5008,VALID,31,VALID,0.0682664,
2005-09-16, 00:47:00,VALID,919.342,VALID,0,VALID,99.2996,VALID,-0.0849042,VALID,19.4881,VALID,12,VALID,0.347479,
2005-09-16, 00:48:00,VALID,919.331,VALID,0,VALID,99.4051,VALID,-0.0849042,VALID,19.4886,VALID,325,VALID,0.583705,
2005-09-16, 00:49:00,VALID,919.319,VALID,0,VALID,99.5895,VALID,-0.0679233,VALID,19.4911,VALID,308,VALID,0.397892,
2005-09-16, 00:50:00,VALID,919.296,VALID,0,VALID,99.6709,VALID,-0.101885,VALID,19.5042,VALID,308,VALID,0.369474,
2005-09-16, 00:51:00,VALID,919.276,VALID,0,VALID,99.7141,VALID,-0.0849042,VALID,19.5107,VALID,308,VALID,0.312706,
2005-09-16, 00:52:00,VALID,919.243,VALID,0,VALID,99.6976,VALID,-0.0679233,VALID,19.5266,VALID,308,VALID,0.175347,
2005-09-16, 00:53:00,VALID,919.214,VALID,0,VALID,99.7523,VALID,-0.101885,VALID,19.533,VALID,308,VALID,0.257994,
2005-09-16, 00:54:00,VALID,919.198,VALID,0,VALID,99.9379,VALID,-0.0849042,VALID,19.546,VALID,308,VALID,0.289789,
2005-09-16, 00:55:00,VALID,919.173,VALID,0,VALID,99.9921,VALID,-0.0849042,VALID,19.5199,VALID,308,VALID,0.294071,
2005-09-16, 00:56:00,VALID,919.172,VALID,0,VALID,100,VALID,-0.0849042,VALID,19.5402,VALID,308,VALID,0.296165,
2005-09-16, 00:57:00,VALID,919.149,VALID,0,VALID,100,VALID,-0.0849042,VALID,19.5204,VALID,308,VALID,0.222147,
2005-09-16, 00:58:00,VALID,919.131,VALID,0,VALID,100,VALID,-0.0679233,VALID,19.5109,VALID,308,VALID,0.120808,
2005-09-16, 00:59:00,VALID,919.121,VALID,0,VALID,100,VALID,-0.0679233,VALID,19.507,VALID,308,VALID,0.0628811,
2005-09-16, 01:00:00,VALID,919.102,VALID,0,VALID,100,VALID,-0.101885,VALID,19.5107,VALID,308,VALID,0.00508721,
2005-09-16, 01:01:00,VALID,919.079,VALID,0,VALID,100,VALID,-0.0339617,VALID,19.5167,VALID,325,VALID,0.397905,
2005-09-16, 01:02:00,VALID,919.076,VALID,0,VALID,100,VALID,-0.0169808,VALID,19.4739,VALID,15,VALID,0.904167,
2005-09-16, 01:03:00,VALID,919.074,VALID,0,VALID,99.999,VALID,-0.0509425,VALID,19.43,VALID,22,VALID,0.487326,
2005-09-16, 01:04:00,VALID,919.067,VALID,0,VALID,99.9672,VALID,-0.0509425,VALID,19.3977,VALID,32,VALID,0.232292,
2005-09-16, 01:05:00,VALID,919.078,VALID,0,VALID,100,VALID,-0.0849042,VALID,19.3654,VALID,32,VALID,0,
2005-09-16, 01:06:00,VALID,919.09,VALID,0,VALID,100,VALID,-0.0169808,VALID,19.3654,VALID,32,VALID,0,
2005-09-16, 01:07:00,VALID,919.081,VALID,0,VALID,100,VALID,-0.0509425,VALID,19.3425,VALID,32,VALID,0,
2005-09-16, 01:08:00,VALID,919.097,VALID,0,VALID,100,VALID,-0.0849042,VALID,19.3164,VALID,35,VALID,0.308308,
2005-09-16, 01:09:00,VALID,919.097,VALID,0,VALID,100,VALID,-0.0679233,VALID,19.3045,VALID,72,VALID,0.588068,
2005-09-16, 01:10:00,VALID,919.1,VALID,0,VALID,100,VALID,-0.0339617,VALID,19.2844,VALID,73,VALID,0.629179,
2005-09-16, 01:11:00,VALID,919.111,VALID,0,VALID,100,VALID,-0.0339617,VALID,19.2782,VALID,73,VALID,0.638626,
2005-09-16, 01:12:00,VALID,919.12,VALID,0,VALID,100,VALID,0,VALID,19.2685,VALID,91,VALID,0.594308,
2005-09-16, 01:13:00,VALID,919.103,VALID,0,VALID,100,VALID,-0.0169808,VALID,19.2583,VALID,149,VALID,0.556548,
2005-09-16, 01:14:00,VALID,919.078,VALID,0,VALID,100,VALID,-0.0509425,VALID,19.2618,VALID,149,VALID,0.617773,
2005-09-16, 01:15:00,VALID,919.056,VALID,0,VALID,99.9756,VALID,0,VALID,19.2807,VALID,155,VALID,0.520167,
2005-09-16, 01:16:00,VALID,919.029,VALID,0,VALID,99.8744,VALID,-0.0509425,VALID,19.2842,VALID,158,VALID,0.584695,
2005-09-16, 01:17:00,VALID,918.995,VALID,0,VALID,99.7497,VALID,-0.0509425,VALID,19.2842,VALID,159,VALID,0.553757,
2005-09-16, 01:18:00,VALID,918.962,VALID,0,VALID,99.6417,VALID,-0.0509425,VALID,19.3102,VALID,159,VALID,0.473479,
2005-09-16, 01:19:00,VALID,918.928,VALID,0,VALID,99.5132,VALID,0,VALID,19.3234,VALID,159,VALID,0.21076,
2005-09-16, 01:20:00,VALID,918.891,VALID,0,VALID,99.395,VALID,-0.0339617,VALID,19.3236,VALID,159,VALID,0.0115489,
2005-09-16, 01:21:00,VALID,918.858,VALID,0,VALID,99.2691,VALID,-0.0169808,VALID,19.307,VALID,159,VALID,0,
2005-09-16, 01:22:00,VALID,918.826,VALID,0,VALID,99.2462,VALID,-0.0169808,VALID,19.2941,VALID,159,VALID,0,
2005-09-16, 01:23:00,VALID,918.792,VALID,0,VALID,99.311,VALID,-0.0169808,VALID,19.2906,VALID,159,VALID,0,
2005-09-16, 01:24:00,VALID,918.775,VALID,0,VALID,99.2691,VALID,-0.0339617,VALID,19.2817,VALID,159,VALID,0,
2005-09-16, 01:25:00,VALID,918.773,VALID,0,VALID,99.2996,VALID,0,VALID,19.2618,VALID,159,VALID,0.00363372,
2005-09-16, 01:26:00,VALID,918.763,VALID,0,VALID,99.3823,VALID,-0.0169808,VALID,19.2817,VALID,159,VALID,0.101004,
2005-09-16, 01:27:00,VALID,918.732,VALID,0,VALID,99.2945,VALID,-0.0169808,VALID,19.2906,VALID,159,VALID,0.0106534,
2005-09-16, 01:28:00,VALID,918.723,VALID,0,VALID,99.1941,VALID,-0.0339617,VALID,19.2971,VALID,159,VALID,0,
2005-09-16, 01:29:00,VALID,918.706,VALID,0,VALID,98.997,VALID,-0.0679233,VALID,19.304,VALID,67,VALID,0.734012,
2005-09-16, 01:30:00,VALID,918.682,VALID,0,VALID,98.6485,VALID,-0.0339617,VALID,19.2422,VALID,50,VALID,0.949491,
2005-09-16, 01:31:00,VALID,918.666,VALID,0,VALID,98.7172,VALID,-0.0509425,VALID,19.1875,VALID,50,VALID,0.534455,
2005-09-16, 01:32:00,VALID,918.652,VALID,0,VALID,98.8355,VALID,-0.0169808,VALID,19.1778,VALID,50,VALID,0.336115,
2005-09-16, 01:33:00,VALID,918.635,VALID,0,VALID,98.6689,VALID,-0.0339617,VALID,19.1843,VALID,50,VALID,0.311979,
2005-09-16, 01:34:00,VALID,918.596,VALID,0,VALID,98.4209,VALID,-0.0169808,VALID,19.2004,VALID,50,VALID,0.583519,
2005-09-16, 01:35:00,VALID,918.574,VALID,0,VALID,98.1221,VALID,-0.0509425,VALID,19.2355,VALID,51,VALID,0.608259,
2005-09-16, 01:36:00,VALID,918.557,VALID,0,VALID,97.9911,VALID,-0.0339617,VALID,19.2618,VALID,89,VALID,0.790661,
2005-09-16, 01:37:00,VALID,918.531,VALID,0,VALID,98.1106,VALID,-0.0169808,VALID,19.2717,VALID,121,VALID,0.616655,
2005-09-16, 01:38:00,VALID,918.479,VALID,0,VALID,98.1831,VALID,-0.0509425,VALID,19.2496,VALID,137,VALID,0.69077,
2005-09-16, 01:39:00,VALID,918.438,VALID,0,VALID,98.7782,VALID,-0.0339617,VALID,19.2134,VALID,135,VALID,0.973157,
2005-09-16, 01:40:00,VALID,918.42,VALID,0,VALID,99.2258,VALID,-0.0679233,VALID,19.1878,VALID,152,VALID,0.867188,
2005-09-16, 01:41:00,VALID,918.399,VALID,0,VALID,99.7103,VALID,-0.0509425,VALID,19.155,VALID,149,VALID,0.953506,
2005-09-16, 01:42:00,VALID,918.365,VALID,0,VALID,99.9964,VALID,-0.0679233,VALID,19.1493,VALID,150,VALID,0.721768,
2005-09-16, 01:43:00,VALID,918.353,VALID,0,VALID,100,VALID,-0.0339617,VALID,19.117,VALID,149,VALID,0.641984,
2005-09-16, 01:44:00,VALID,918.342,VALID,0,VALID,100,VALID,-0.0849042,VALID,19.0877,VALID,149,VALID,0.478871,
2005-09-16, 01:45:00,VALID,918.328,VALID,0,VALID,100,VALID,-0.0339617,VALID,19.075,VALID,149,VALID,0.40816,
2005-09-16, 01:46:00,VALID,918.317,VALID,0,VALID,100,VALID,-0.101885,VALID,19.0522,VALID,149,VALID,0.0579579,
2005-09-16, 01:47:00,VALID,918.304,VALID,0,VALID,100,VALID,-0.0679233,VALID,19.0296,VALID,149,VALID,0,
2005-09-16, 01:48:00,VALID,918.272,VALID,0,VALID,100,VALID,-0.0849042,VALID,19.0203,VALID,148,VALID,0.000363372,
2005-09-16, 01:49:00,VALID,918.233,VALID,0,VALID,100,VALID,-0.101885,VALID,19.0012,VALID,53,VALID,0.406641,
2005-09-16, 01:50:00,VALID,918.236,VALID,0,VALID,100,VALID,-0.101885,VALID,18.9622,VALID,52,VALID,0.298399,
2005-09-16, 01:51:00,VALID,918.223,VALID,0,VALID,100,VALID,-0.101885,VALID,18.9401,VALID,52,VALID,0.0364583,
2005-09-16, 01:52:00,VALID,918.235,VALID,0,VALID,100,VALID,-0.0679233,VALID,18.9103,VALID,52,VALID,0,
2005-09-16, 01:53:00,VALID,918.233,VALID,0,VALID,100,VALID,-0.0849042,VALID,18.9043,VALID,52,VALID,0,
2005-09-16, 01:54:00,VALID,918.239,VALID,0,VALID,100,VALID,-0.101885,VALID,18.8947,VALID,52,VALID,0,
2005-09-16, 01:55:00,VALID,918.254,VALID,0,VALID,100,VALID,-0.0679233,VALID,18.9006,VALID,52,VALID,0,
2005-09-16, 01:56:00,VALID,918.246,VALID,0,VALID,100,VALID,-0.101885,VALID,18.914,VALID,52,VALID,0,
2005-09-16, 01:57:00,VALID,918.246,VALID,0,VALID,100,VALID,-0.101885,VALID,18.8912,VALID,52,VALID,0.0599609,
2005-09-16, 01:58:00,VALID,918.25,VALID,0,VALID,100,VALID,-0.101885,VALID,18.8976,VALID,52,VALID,0.00457317,
2005-09-16, 01:59:00,VALID,918.258,VALID,0,VALID,100,VALID,-0.118866,VALID,18.8589,VALID,52,VALID,0,
2005-09-16, 02:00:00,VALID,918.289,VALID,0,VALID,100,VALID,-0.0849042,VALID,18.7872,VALID,52,VALID,0,
2005-09-16, 02:01:00,VALID,918.318,VALID,0,VALID,100,VALID,0,VALID,18.7417,VALID,52,VALID,0,
2005-09-16, 02:02:00,VALID,918.339,VALID,0,VALID,100,VALID,0.0169808,VALID,18.7124,VALID,52,VALID,0.0306784,
2005-09-16, 02:03:00,VALID,918.351,VALID,0,VALID,100,VALID,0,VALID,18.7288,VALID,52,VALID,0.178571,
2005-09-16, 02:04:00,VALID,918.361,VALID,0,VALID,100,VALID,0.0169808,VALID,18.7445,VALID,52,VALID,0,
2005-09-16, 02:05:00,VALID,918.358,VALID,0,VALID,100,VALID,0.0339617,VALID,18.7576,VALID,52,VALID,0,
2005-09-16, 02:06:00,VALID,918.344,VALID,0,VALID,100,VALID,0,VALID,18.7579,VALID,52,VALID,0,
2005-09-16, 02:07:00,VALID,918.353,VALID,0,VALID,100,VALID,-0.0169808,VALID,18.7643,VALID,52,VALID,0.0979421,
2005-09-16, 02:08:00,VALID,918.36,VALID,0,VALID,100,VALID,0,VALID,18.7579,VALID,52,VALID,0.254179,
2005-09-16, 02:09:00,VALID,918.374,VALID,0,VALID,100,VALID,0,VALID,18.7479,VALID,52,VALID,0.26508,
2005-09-16, 02:10:00,VALID,918.396,VALID,0,VALID,100,VALID,-0.0169808,VALID,18.7318,VALID,52,VALID,0.500744,
2005-09-16, 02:11:00,VALID,918.408,VALID,0,VALID,100,VALID,-0.0169808,VALID,18.7189,VALID,52,VALID,0.558499,
2005-09-16, 02:12:00,VALID,918.426,VALID,0,VALID,100,VALID,0,VALID,18.729,VALID,83,VALID,0.713542,
2005-09-16, 02:13:00,VALID,918.434,VALID,0,VALID,100,VALID,-0.0169808,VALID,18.7159,VALID,88,VALID,0.562881,
2005-09-16, 02:14:00,VALID,918.427,VALID,0,VALID,100,VALID,0,VALID,18.7224,VALID,88,VALID,0.625,
2005-09-16, 02:15:00,VALID,918.418,VALID,0,VALID,100,VALID,-0.0169808,VALID,18.7293,VALID,88,VALID,0.532158,
2005-09-16, 02:16:00,VALID,918.411,VALID,0,VALID,100,VALID,-0.101885,VALID,18.7431,VALID,88,VALID,0.425145,
2005-09-16, 02:17:00,VALID,918.402,VALID,0,VALID,100,VALID,-0.118866,VALID,18.7563,VALID,88,VALID,0.209872,
2005-09-16, 02:18:00,VALID,918.384,VALID,0,VALID,100,VALID,-0.101885,VALID,18.7431,VALID,88,VALID,0.179155,
2005-09-16, 02:19:00,VALID,918.359,VALID,0,VALID,100,VALID,-0.101885,VALID,18.7012,VALID,88,VALID,0.282452,
2005-09-16, 02:20:00,VALID,918.33,VALID,0,VALID,100,VALID,-0.101885,VALID,18.685,VALID,88,VALID,0.392671,
2005-09-16, 02:21:00,VALID,918.302,VALID,0,VALID,100,VALID,-0.118866,VALID,18.7173,VALID,88,VALID,0.47561,
2005-09-16, 02:22:00,VALID,918.266,VALID,0,VALID,100,VALID,-0.101885,VALID,18.7464,VALID,88,VALID,0.516667,
2005-09-16, 02:23:00,VALID,918.241,VALID,0,VALID,100,VALID,-0.118866,VALID,18.7886,VALID,88,VALID,0.319425,
2005-09-16, 02:24:00,VALID,918.224,VALID,0,VALID,100,VALID,-0.118866,VALID,18.8043,VALID,88,VALID,0.179883,
2005-09-16, 02:25:00,VALID,918.22,VALID,0,VALID,100,VALID,-0.152827,VALID,18.8276,VALID,88,VALID,0.358285,
2005-09-16, 02:26:00,VALID,918.226,VALID,0,VALID,100,VALID,-0.118866,VALID,18.8499,VALID,131,VALID,0.537791,
2005-09-16, 02:27:00,VALID,918.236,VALID,0,VALID,100,VALID,-0.118866,VALID,18.8698,VALID,148,VALID,0.49782,
2005-09-16, 02:28:00,VALID,918.238,VALID,0,VALID,100,VALID,-0.135847,VALID,18.882,VALID,151,VALID,0.744978,
2005-09-16, 02:29:00,VALID,918.247,VALID,0,VALID,100,VALID,-0.101885,VALID,18.8988,VALID,155,VALID,0.723611,
2005-09-16, 02:30:00,VALID,918.248,VALID,0,VALID,100,VALID,-0.118866,VALID,18.8951,VALID,155,VALID,0.784054,
2005-09-16, 02:31:00,VALID,918.257,VALID,0,VALID,100,VALID,-0.0339617,VALID,18.9073,VALID,160,VALID,0.883013,
2005-09-16, 02:32:00,VALID,918.258,VALID,0,VALID,100,VALID,-0.0169808,VALID,18.9133,VALID,160,VALID,1.00838,
2005-09-16, 02:33:00,VALID,918.268,VALID,0,VALID,100,VALID,0,VALID,18.9128,VALID,164,VALID,0.932231,
2005-09-16, 02:34:00,VALID,918.273,VALID,0,VALID,100,VALID,-0.0169808,VALID,18.9295,VALID,164,VALID,0.834704,
2005-09-16, 02:35:00,VALID,918.274,VALID,0,VALID,100,VALID,0,VALID,18.9325,VALID,164,VALID,0.760789,
2005-09-16, 02:36:00,VALID,918.26,VALID,0,VALID,100,VALID,0,VALID,18.9325,VALID,164,VALID,0.505087,
2005-09-16, 02:37:00,VALID,918.26,VALID,0,VALID,100,VALID,0,VALID,18.9322,VALID,164,VALID,0.223899,
2005-09-16, 02:38:00,VALID,918.26,VALID,0,VALID,100,VALID,0,VALID,18.9357,VALID,164,VALID,0.205788,
2005-09-16, 02:39:00,VALID,918.252,VALID,0,VALID,100,VALID,0,VALID,18.9553,VALID,164,VALID,0,
2005-09-16, 02:40:00,VALID,918.252,VALID,0,VALID,100,VALID,0.0169808,VALID,18.9647,VALID,164,VALID,0,
2005-09-16, 02:41:00,VALID,918.261,VALID,0,VALID,100,VALID,0,VALID,18.9844,VALID,164,VALID,0,
2005-09-16, 02:42:00,VALID,918.265,VALID,0,VALID,100,VALID,0.0169808,VALID,18.9414,VALID,164,VALID,0.0184659,
2005-09-16, 02:43:00,VALID,918.27,VALID,0,VALID,100,VALID,0,VALID,18.9191,VALID,102,VALID,0.501736,
2005-09-16, 02:44:00,VALID,918.271,VALID,0,VALID,100,VALID,0,VALID,18.8776,VALID,47,VALID,0.747638,
2005-09-16, 02:45:00,VALID,918.284,VALID,0,VALID,100,VALID,0,VALID,18.8351,VALID,45,VALID,0.603561,
2005-09-16, 02:46:00,VALID,918.289,VALID,0,VALID,100,VALID,0,VALID,18.8391,VALID,45,VALID,0.567336,
2005-09-16, 02:47:00,VALID,918.304,VALID,0,VALID,100,VALID,0,VALID,18.8646,VALID,45,VALID,0.370486,
2005-09-16, 02:48:00,VALID,918.322,VALID,0,VALID,100,VALID,0.0169808,VALID,18.8681,VALID,45,VALID,0.0148628,
2005-09-16, 02:49:00,VALID,918.307,VALID,0,VALID,100,VALID,0,VALID,18.8739,VALID,45,VALID,0,
2005-09-16, 02:50:00,VALID,918.321,VALID,0,VALID,100,VALID,0,VALID,18.8972,VALID,45,VALID,0,
2005-09-16, 02:51:00,VALID,918.337,VALID,0,VALID,100,VALID,0,VALID,18.9032,VALID,45,VALID,0,
2005-09-16, 02:52:00,VALID,918.386,VALID,0,VALID,100,VALID,0,VALID,18.9198,VALID,45,VALID,0,
2005-09-16, 02:53:00,VALID,918.411,VALID,0,VALID,100,VALID,0,VALID,18.9163,VALID,45,VALID,0,
2005-09-16, 02:54:00,VALID,918.427,VALID,0,VALID,100,VALID,0,VALID,18.8999,VALID,53,VALID,0.305618,
2005-09-16, 02:55:00,VALID,918.47,VALID,0,VALID,100,VALID,0,VALID,18.8937,VALID,111,VALID,0.59157,
2005-09-16, 02:56:00,VALID,918.492,VALID,0,VALID,100,VALID,0,VALID,18.9265,VALID,152,VALID,0.738104,
2005-09-16, 02:57:00,VALID,918.493,VALID,0,VALID,100,VALID,0,VALID,18.9717,VALID,144,VALID,0.94122,
2005-09-16, 02:58:00,VALID,918.498,VALID,0,VALID,100,VALID,-0.0169808,VALID,18.9943,VALID,138,VALID,0.860518,
2005-09-16, 02:59:00,VALID,918.513,VALID,0,VALID,100,VALID,-0.0339617,VALID,19.0007,VALID,139,VALID,0.836868,
2005-09-16, 03:00:00,VALID,918.508,VALID,0,VALID,100,VALID,-0.0169808,VALID,18.9938,VALID,135,VALID,0.939453,
2005-09-16, 03:01:00,VALID,918.52,VALID,0,VALID,100,VALID,-0.0509425,VALID,18.9908,VALID,136,VALID,0.94186,
2005-09-16, 03:02:00,VALID,918.513,VALID,0,VALID,100,VALID,0,VALID,19.0077,VALID,136,VALID,0.903201,
2005-09-16, 03:03:00,VALID,918.501,VALID,0,VALID,100,VALID,0,VALID,18.9871,VALID,133,VALID,0.642624,
2005-09-16, 03:04:00,VALID,918.49,VALID,0,VALID,100,VALID,-0.0169808,VALID,18.9881,VALID,112,VALID,0.63899,
2005-09-16, 03:05:00,VALID,918.479,VALID,0,VALID,100,VALID,0.0169808,VALID,18.9712,VALID,106,VALID,0.65346,
2005-09-16, 03:06:00,VALID,918.479,VALID,0,VALID,100,VALID,0,VALID,18.9781,VALID,106,VALID,0.339844,
2005-09-16, 03:07:00,VALID,918.466,VALID,0,VALID,100,VALID,0,VALID,18.9749,VALID,106,VALID,0.169829,
2005-09-16, 03:08:00,VALID,918.462,VALID,0,VALID,100,VALID,0,VALID,18.968,VALID,106,VALID,0.247582,
2005-09-16, 03:09:00,VALID,918.469,VALID,0,VALID,100,VALID,0.0169808,VALID,18.968,VALID,106,VALID,0.370313,
2005-09-16, 03:10:00,VALID,918.468,VALID,0,VALID,100,VALID,0,VALID,18.9806,VALID,106,VALID,0.50625,
2005-09-16, 03:11:00,VALID,918.452,VALID,0,VALID,100,VALID,0,VALID,18.9869,VALID,100,VALID,0.41061,
2005-09-16, 03:12:00,VALID,918.429,VALID,0,VALID,100,VALID,0,VALID,18.9936,VALID,95,VALID,0.379297,
2005-09-16, 03:13:00,VALID,918.398,VALID,0,VALID,100,VALID,-0.0169808,VALID,19.0097,VALID,95,VALID,0.362537,
2005-09-16, 03:14:00,VALID,918.363,VALID,0,VALID,100,VALID,0,VALID,19.004,VALID,95,VALID,0.230291,
2005-09-16, 03:15:00,VALID,918.313,VALID,0,VALID,100,VALID,0,VALID,18.9906,VALID,95,VALID,0.352896,
2005-09-16, 03:16:00,VALID,918.282,VALID,0,VALID,100,VALID,0,VALID,18.9747,VALID,95,VALID,0.182413,
2005-09-16, 03:17:00,VALID,918.242,VALID,0,VALID,100,VALID,-0.0169808,VALID,18.9484,VALID,95,VALID,0.0900213,
2005-09-16, 03:18:00,VALID,918.227,VALID,0,VALID,100,VALID,0.0169808,VALID,18.926,VALID,95,VALID,0,
2005-09-16, 03:19:00,VALID,918.208,VALID,0,VALID,100,VALID,-0.0169808,VALID,18.9034,VALID,91,VALID,0.0786701,
2005-09-16, 03:20:00,VALID,918.206,VALID,0,VALID,100,VALID,0,VALID,18.9131,VALID,68,VALID,0.34484,
2005-09-16, 03:21:00,VALID,918.216,VALID,0,VALID,100,VALID,0,VALID,18.9128,VALID,67,VALID,0.266493,
2005-09-16, 03:22:00,VALID,918.216,VALID,0,VALID,100,VALID,-0.0169808,VALID,18.8969,VALID,67,VALID,0.221657,
2005-09-16, 03:23:00,VALID,918.227,VALID,0,VALID,100,VALID,0,VALID,18.8872,VALID,67,VALID,0.305246,
2005-09-16, 03:24:00,VALID,918.223,VALID,0,VALID,100,VALID,0,VALID,18.8453,VALID,67,VALID,0.457317,
2005-09-16, 03:25:00,VALID,918.205,VALID,0,VALID,100,VALID,-0.0169808,VALID,18.8197,VALID,67,VALID,0.482851,
2005-09-16, 03:26:00,VALID,918.202,VALID,0,VALID,100,VALID,0,VALID,18.813,VALID,67,VALID,0.281441,
2005-09-16, 03:27:00,VALID,918.209,VALID,0,VALID,100,VALID,-0.0169808,VALID,18.8165,VALID,67,VALID,0.015067,
2005-09-16, 03:28:00,VALID,918.211,VALID,0,VALID,100,VALID,-0.0339617,VALID,18.8202,VALID,67,VALID,0,
2005-09-16, 03:29:00,VALID,918.223,VALID,0,VALID,100,VALID,0,VALID,18.807,VALID,67,VALID,0,
2005-09-16, 03:30:00,VALID,918.232,VALID,0,VALID,100,VALID,0,VALID,18.7939,VALID,67,VALID,0.257068,
2005-09-16, 03:31:00,VALID,918.223,VALID,0,VALID,100,VALID,-0.0339617,VALID,18.8005,VALID,67,VALID,0.293229,
2005-09-16, 03:32:00,VALID,918.211,VALID,0,VALID,100,VALID,-0.0339617,VALID,18.7941,VALID,69,VALID,0.475446,
2005-09-16, 03:33:00,VALID,918.184,VALID,0,VALID,100,VALID,0,VALID,18.7846,VALID,95,VALID,0.497456,
2005-09-16, 03:34:00,VALID,918.167,VALID,0,VALID,100,VALID,-0.0169808,VALID,18.7553,VALID,116,VALID,0.624814,
2005-09-16, 03:35:00,VALID,918.146,VALID,0,VALID,100,VALID,-0.0169808,VALID,18.7355,VALID,148,VALID,0.754102,
2005-09-16, 03:36:00,VALID,918.139,VALID,0,VALID,100,VALID,-0.0169808,VALID,18.7459,VALID,149,VALID,0.460007,
2005-09-16, 03:37:00,VALID,918.134,VALID,0,VALID,100,VALID,0,VALID,18.7392,VALID,149,VALID,0.197656,
2005-09-16, 03:38:00,VALID,918.117,VALID,0,VALID,100,VALID,-0.0339617,VALID,18.7392,VALID,149,VALID,0.107422,
2005-09-16, 03:39:00,VALID,918.116,VALID,0,VALID,100,VALID,-0.0169808,VALID,18.7424,VALID,149,VALID,0.04375,
2005-09-16, 03:40:00,VALID,918.097,VALID,0,VALID,100,VALID,0,VALID,18.7357,VALID,149,VALID,0.293341,
2005-09-16, 03:41:00,VALID,918.101,VALID,0,VALID,100,VALID,0,VALID,18.7256,VALID,150,VALID,0.466974,